• In Belarus
  • List of Countries
  • For 7 days
  • Water Temperature
  • Satellite Maps
  • Weather Map
  • Weather Widgets
  • user-avatar
    Login

    Hourly Weather Port-au-Princ

    Today, 25 June, Tuesday

    Time Temperature Precipitation Wind Pressure Humidity
    00:00 +26°C° 0 mm 1 mps 737 mmHg 80%
    01:00 +25°C° 0 mm 1 mps 737 mmHg 79%
    02:00 +25°C° 0 mm 1 mps 736 mmHg 79%
    03:00 +25°C° 0 mm 1 mps 736 mmHg 79%
    04:00 +25°C° 0 mm 1 mps 735 mmHg 78%
    05:00 +26°C° 0 mm 1 mps 736 mmHg 76%
    06:00 +26°C° 0 mm 1 mps 736 mmHg 74%
    07:00 +27°C° 0 mm 1 mps 737 mmHg 71%
    08:00 +29°C° 0 mm 1 mps 737 mmHg 66%
    09:00 +30°C° 0 mm 1 mps 737 mmHg 60%
    10:00 +31°C° 0 mm 1 mps 737 mmHg 55%
    11:00 +32°C° 0 mm 1 mps 737 mmHg 53%
    12:00 +32°C° 0 mm 2 mps 737 mmHg 52%
    13:00 +34°C° 0 mm 2 mps 737 mmHg 50%
    14:00 +32°C° 0.2 mm 2 mps 737 mmHg 53%
    15:00 +32°C° 0.2 mm 2 mps 736 mmHg 57%
    16:00 +31°C° 0.2 mm 2 mps 736 mmHg 60%
    17:00 +30°C° 0.4 mm 2 mps 736 mmHg 67%
    18:00 +29°C° 0.4 mm 1 mps 736 mmHg 74%
    19:00 +27°C° 0.4 mm 1 mps 737 mmHg 80%
    20:00 +27°C° 0.1 mm 1 mps 737 mmHg 81%
    21:00 +25°C° 0.1 mm 0 mps 737 mmHg 81%
    22:00 +25°C° 0.1 mm 0 mps 737 mmHg 81%
    23:00 +26°C° 0 mm 1 mps 737 mmHg 81%

    Tomorrow, 26 June, Wednesday

    Time Temperature Precipitation Wind Pressure Humidity
    00:00 +26°C° 0 mm 1 mps 737 mmHg 80%
    01:00 +26°C° 0 mm 1 mps 737 mmHg 79%
    02:00 +26°C° 0 mm 1 mps 736 mmHg 79%
    03:00 +26°C° 0 mm 1 mps 736 mmHg 80%
    04:00 +26°C° 0 mm 1 mps 736 mmHg 80%
    05:00 +26°C° 0 mm 1 mps 736 mmHg 79%
    06:00 +27°C° 0 mm 1 mps 737 mmHg 77%
    07:00 +27°C° 0 mm 1 mps 737 mmHg 76%
    08:00 +28°C° 0 mm 1 mps 737 mmHg 72%
    09:00 +30°C° 0 mm 1 mps 737 mmHg 67%
    10:00 +31°C° 0 mm 1 mps 737 mmHg 63%
    11:00 +31°C° 0.1 mm 1 mps 737 mmHg 61%
    12:00 +32°C° 0.1 mm 1 mps 737 mmHg 60%
    13:00 +32°C° 0.1 mm 1 mps 737 mmHg 58%
    14:00 +32°C° 1.1 mm 1 mps 737 mmHg 61%
    15:00 +31°C° 1.1 mm 1 mps 736 mmHg 65%
    16:00 +30°C° 1.1 mm 1 mps 736 mmHg 68%
    17:00 +30°C° 0.5 mm 1 mps 736 mmHg 72%
    18:00 +29°C° 0.5 mm 1 mps 736 mmHg 76%
    19:00 +26°C° 0.5 mm 0 mps 737 mmHg 80%
    20:00 +28°C° 0.1 mm 1 mps 737 mmHg 81%
    21:00 +27°C° 0.1 mm 1 mps 737 mmHg 82%
    22:00 +27°C° 0.1 mm 1 mps 737 mmHg 83%
    23:00 +27°C° 0 mm 1 mps 737 mmHg 83%

    Day after tomorrow, 27 June, Thursday

    Time Temperature Precipitation Wind Pressure Humidity
    00:00 +26°C° 0 mm 1 mps 736 mmHg 84%
    01:00 +26°C° 0 mm 1 mps 736 mmHg 84%
    02:00 +26°C° 0 mm 1 mps 736 mmHg 85%
    03:00 +25°C° 0 mm 1 mps 736 mmHg 86%
    04:00 +25°C° 0 mm 2 mps 736 mmHg 87%
    05:00 +26°C° 0 mm 2 mps 736 mmHg 85%
    06:00 +26°C° 0 mm 2 mps 736 mmHg 82%
    07:00 +27°C° 0 mm 2 mps 737 mmHg 80%
    08:00 +28°C° 0 mm 2 mps 737 mmHg 74%
    09:00 +30°C° 0 mm 2 mps 737 mmHg 69%
    10:00 +31°C° 0 mm 2 mps 737 mmHg 63%
    11:00 +31°C° 0.8 mm 2 mps 737 mmHg 62%
    12:00 +32°C° 0.8 mm 2 mps 737 mmHg 61%
    13:00 +32°C° 0.8 mm 2 mps 737 mmHg 59%
    14:00 +31°C° 1 mm 2 mps 736 mmHg 63%
    15:00 +31°C° 1 mm 2 mps 736 mmHg 67%
    16:00 +30°C° 1 mm 2 mps 736 mmHg 70%
    17:00 +29°C° 1.1 mm 2 mps 736 mmHg 74%
    18:00 +28°C° 1.1 mm 1 mps 736 mmHg 79%
    19:00 +25°C° 1.1 mm 0 mps 736 mmHg 83%
    20:00 +27°C° 0.1 mm 1 mps 737 mmHg 83%
    21:00 +26°C° 0.1 mm 1 mps 737 mmHg 83%
    22:00 +26°C° 0.1 mm 1 mps 737 mmHg 83%
    23:00 +25°C° 0 mm 1 mps 737 mmHg 82%

    28 June, Friday

    Time Temperature Precipitation Wind Pressure Humidity
    00:00 +25°C° 0 mm 1 mps 737 mmHg 81%
    01:00 +25°C° 0 mm 1 mps 737 mmHg 81%
    02:00 +25°C° 0 mm 1 mps 736 mmHg 81%
    03:00 +24°C° 0 mm 1 mps 736 mmHg 81%
    04:00 +24°C° 0 mm 1 mps 736 mmHg 80%
    05:00 +25°C° 0 mm 2 mps 736 mmHg 79%
    06:00 +26°C° 0 mm 2 mps 737 mmHg 77%
    07:00 +26°C° 0 mm 2 mps 737 mmHg 76%
    08:00 +28°C° 0 mm 2 mps 737 mmHg 71%
    09:00 +29°C° 0 mm 3 mps 738 mmHg 66%
    10:00 +30°C° 0 mm 3 mps 738 mmHg 61%
    11:00 +31°C° 0 mm 3 mps 738 mmHg 60%
    12:00 +31°C° 0 mm 3 mps 737 mmHg 58%
    13:00 +32°C° 0 mm 2 mps 737 mmHg 56%
    14:00 +32°C° 0 mm 2 mps 737 mmHg 55%
    15:00 +32°C° 0 mm 2 mps 736 mmHg 55%
    16:00 +32°C° 0 mm 2 mps 736 mmHg 54%
    17:00 +30°C° 0 mm 2 mps 736 mmHg 62%
    18:00 +28°C° 0 mm 1 mps 736 mmHg 70%
    19:00 +27°C° 0 mm 1 mps 736 mmHg 78%
    20:00 +27°C° 0 mm 1 mps 737 mmHg 79%
    21:00 +26°C° 0 mm 2 mps 737 mmHg 81%
    22:00 +26°C° 0 mm 2 mps 738 mmHg 83%
    23:00 +26°C° 0 mm 2 mps 737 mmHg 82%

    29 June, Saturday

    Time Temperature Precipitation Wind Pressure Humidity
    00:00 +25°C° 0 mm 2 mps 737 mmHg 82%
    01:00 +25°C° 0 mm 2 mps 736 mmHg 82%
    02:00 +25°C° 0 mm 2 mps 736 mmHg 83%
    03:00 +25°C° 0 mm 2 mps 736 mmHg 83%
    04:00 +24°C° 0 mm 2 mps 736 mmHg 83%
    05:00 +25°C° 0 mm 2 mps 737 mmHg 81%
    06:00 +26°C° 0 mm 2 mps 737 mmHg 79%
    07:00 +26°C° 0 mm 2 mps 737 mmHg 78%
    08:00 +28°C° 0 mm 2 mps 738 mmHg 71%
    09:00 +29°C° 0 mm 2 mps 738 mmHg 64%
    10:00 +30°C° 0 mm 2 mps 738 mmHg 57%
    11:00 +31°C° 0 mm 2 mps 738 mmHg 56%
    12:00 +32°C° 0 mm 2 mps 738 mmHg 54%
    13:00 +34°C° 0 mm 2 mps 738 mmHg 52%
    14:00 +32°C° 0 mm 2 mps 737 mmHg 55%
    15:00 +32°C° 0 mm 2 mps 737 mmHg 57%
    16:00 +31°C° 0 mm 2 mps 736 mmHg 59%
    17:00 +30°C° 0.1 mm 2 mps 736 mmHg 65%
    18:00 +29°C° 0.1 mm 1 mps 737 mmHg 71%
    19:00 +27°C° 0.1 mm 1 mps 737 mmHg 76%
    20:00 +27°C° 0 mm 1 mps 737 mmHg 76%
    21:00 +26°C° 0 mm 1 mps 737 mmHg 76%
    22:00 +26°C° 0 mm 2 mps 738 mmHg 76%
    23:00 +26°C° 0 mm 2 mps 737 mmHg 77%

    30 June, Sunday

    Time Temperature Precipitation Wind Pressure Humidity
    00:00 +25°C° 0 mm 2 mps 737 mmHg 78%
    01:00 +25°C° 0 mm 2 mps 737 mmHg 78%
    02:00 +25°C° 0 mm 2 mps 737 mmHg 79%
    03:00 +25°C° 0 mm 2 mps 736 mmHg 80%
    04:00 +25°C° 0 mm 1 mps 736 mmHg 81%
    05:00 +25°C° 0 mm 1 mps 737 mmHg 79%
    06:00 +26°C° 0 mm 1 mps 737 mmHg 77%
    07:00 +27°C° 0 mm 1 mps 737 mmHg 75%
    08:00 +28°C° 0 mm 1 mps 737 mmHg 69%
    09:00 +30°C° 0 mm 2 mps 738 mmHg 63%
    10:00 +31°C° 0 mm 2 mps 738 mmHg 57%
    11:00 +32°C° 0 mm 2 mps 738 mmHg 55%
    12:00 +34°C° 0 mm 2 mps 737 mmHg 53%
    13:00 +34°C° 0 mm 2 mps 737 mmHg 51%
    14:00 +34°C° 0.1 mm 2 mps 737 mmHg 55%
    15:00 +32°C° 0.1 mm 2 mps 736 mmHg 59%
    16:00 +32°C° 0.1 mm 2 mps 736 mmHg 62%
    17:00 +30°C° 0.2 mm 2 mps 736 mmHg 69%
    18:00 +29°C° 0.2 mm 1 mps 736 mmHg 76%
    19:00 +27°C° 0.2 mm 1 mps 736 mmHg 83%
    20:00 +27°C° 0 mm 1 mps 737 mmHg 84%
    21:00 +26°C° 0 mm 1 mps 737 mmHg 84%
    22:00 +26°C° 0 mm 2 mps 738 mmHg 85%
    23:00 +26°C° 0 mm 2 mps 737 mmHg 86%
    Show more